Weather in Bolshaya Utorgosh

Russia / Novgorod Oblast     58°16′12″N   30°06′57″E
temp.,
°C
wind,
m/s
gust,
m/s
humid.,
%
clouds,
%
prec.,
mm/h
press.,
hPa
HPBL,
m
5 august, thu
thu500:00+10n1180100 0.0 101710
03:00+10ne1176100 0.0 101710
06:00+10ne1178100 0.0 101717
09:00+15ene2364100 0.0 1016283
12:00+16se2366100 0.2 1016686
15:00+12e2697100 3.4 1016359
18:00+11nne3898100 2.8 1015394
21:00+12nne3998100 3.6 1015432
6 august, fri
fri600:00+12nne3998100 0.1 1014461
03:00+12nne3998100 0.2 1014568
06:00+12nne4109799 0.1 1013469
09:00+14ene4889100 0.1 1013607
12:00+17ene586876 0.1 10121052
15:00+19ne5757100 0.1 10111519
18:00+18ene4771100 0.0 10101014
21:00+15ne51288100 0.0 1010578
7 august, sat
sat700:00+15ene51389100 0.0 1008638
03:00+15ene51293100 0.1 1007627
06:00+15ene51199100 1.1 1006566
09:00+16ene41099100 1.9 1004564
12:00+16e4998100 5.5 1004577
15:00+17ese2799100 5.9 1004418
18:00+19se259580 0.4 1004471
21:00+16ssw389625 1.4 1005236
8 august, sun
sun800:00+12s229611 0.0 100732
03:00+13s2498100 0.0 1008149
06:00+14sse2599100 0.1 1008220
09:00+15s2497100 0.3 1009302
12:00+16s139341 0.4 1010363
15:00+20sw347540 1.1 1011829
18:00+20sw2589100 1.4 1011431
21:00+17ssw119562 1.8 101211
9 august, mon
mon900:00+16ssw2397100 0.0 101353
03:00+15sse2297100 0.0 101334
06:00+15sse269797 0.0 1012139
09:00+16ese2894100 0.0 1012243
12:00+23sse456391 0.0 1011961
15:00+21ssw478499 0.4 1012627
18:00+19sw4884100 0.1 1013661
21:00+18wsw4118886 0.4 1014588